Weather History for KPNA - April, 2012

Change the Weather History Date:

Friday, April 6, 2012

  Actual Average (KBPI) Record (KBPI)
Temperature  
Mean Temperature 34 °F 35 °F  
Max Temperature 37 °F 50 °F 61 °F (1977)
Min Temperature 30 °F 20 °F 8 °F (1983)
Degree Days  
Heating Degree Days 32 30  
Month to date heating degree days 186  
Since 1 July heating degree days 8881  
Cooling Degree Days 0 0  
Month to date cooling degree days 0  
Year to date cooling degree days 0  
Moisture  
Dew Point 19 °F    
Average Humidity 58    
Maximum Humidity 100    
Minimum Humidity 32    
Precipitation  
Precipitation 0.00 in 0.02 in 0.02 in (2010)
Month to date precipitation 0.10  
Year to date precipitation 1.20  
Sea Level Pressure  
Sea Level Pressure 29.77 in    
Wind  
Wind Speed 11 mph (West)    
Max Wind Speed 28 mph    
Max Gust Speed 34 mph    
Visibility 10 miles    
Events Snow    
T = Trace of Precipitation, MM = Missing Value Source: NWS Daily Summary

Daily Weather History Graph

Daily Weather History Graph

Search for Another Location

Airport or City:

Trip Planner

Search our weather history database for the weather conditions in past years. The results will help you decide how hot, cold, wet, or windy it might be!

Date:

Astronomy

Apr. 06, 2012 Rise Set
Actual Time 6:51 AM MDT 7:51 PM MDT
Civil Twilight 6:22 AM MDT 8:20 PM MDT
Nautical Twilight 5:48 AM MDT 8:55 PM MDT
Astronomical Twilight 5:12 AM MDT 9:31 PM MDT
Moon 8:17 PM MDT (4/6) 6:25 AM MDT (4/6)
Length of Visible Light 13h 57m
Length of Day
13h 00m
Full, 100% of the Moon is Illuminated
Apr 6
Full
Apr 6
Full
Apr 13
Last Quarter
Apr 21
New
Apr 29
First Quarter

Hourly Weather History & Observations

Time (MDT) Temp. Windchill Dew Point Humidity Pressure Visibility Wind Dir Wind Speed Gust Speed Precip Events Conditions
12:15 AM 37.4 °F 30.3 °F 26.6 °F 65% 29.69 in 10.0 mi NW 10.4 mph - N/A   Overcast
12:35 AM 37.4 °F 31.4 °F 28.4 °F 70% 29.69 in 10.0 mi SSW 8.1 mph - N/A   Overcast
12:55 AM 37.4 °F 32.8 °F 26.6 °F 65% 29.69 in 10.0 mi SW 5.8 mph - N/A   Mostly Cloudy
1:15 AM 37.4 °F 33.8 °F 26.6 °F 65% 29.69 in 10.0 mi WSW 4.6 mph - N/A   Mostly Cloudy
1:35 AM 35.6 °F 29.2 °F 30.2 °F 81% 29.70 in 10.0 mi SW 8.1 mph - N/A   Overcast
2:15 AM 35.6 °F 32.8 °F 32.0 °F 87% 29.67 in 10.0 mi NNE 3.5 mph - N/A   Overcast
2:35 AM 35.6 °F 30.7 °F 30.2 °F 81% 29.67 in 10.0 mi North 5.8 mph - N/A   Overcast
2:55 AM 33.8 °F 24.8 °F 32.0 °F 93% 29.64 in 10.0 mi NNE 12.7 mph - N/A   Overcast
3:15 AM 33.8 °F 30.8 °F 32.0 °F 93% 29.65 in 10.0 mi NE 3.5 mph - N/A   Overcast
3:35 AM 33.8 °F 29.6 °F 32.0 °F 93% 29.66 in 10.0 mi ESE 4.6 mph - N/A   Overcast
3:55 AM 33.8 °F - 30.2 °F 87% 29.66 in 10.0 mi Calm Calm - N/A   Overcast
4:15 AM 32.0 °F - 30.2 °F 93% 29.67 in 10.0 mi Calm Calm - N/A   Mostly Cloudy
4:35 AM 32.0 °F - 32.0 °F 100% 29.67 in 10.0 mi Calm Calm - N/A   Mostly Cloudy
4:55 AM 32.0 °F 27.5 °F 30.2 °F 93% 29.67 in 10.0 mi SW 4.6 mph - N/A   Overcast
5:15 AM 35.6 °F 30.7 °F 23.0 °F 60% 29.67 in 10.0 mi SE 5.8 mph - N/A   Overcast
5:35 AM 33.8 °F 27.7 °F 28.4 °F 81% 29.67 in 10.0 mi ESE 6.9 mph - N/A   Overcast
5:55 AM 33.8 °F 30.8 °F 26.6 °F 75% 29.66 in 10.0 mi ESE 3.5 mph - N/A   Overcast
6:15 AM 32.0 °F 26.4 °F 26.6 °F 80% 29.65 in 10.0 mi SE 5.8 mph - N/A   Mostly Cloudy
6:35 AM 32.0 °F 24.2 °F 26.6 °F 80% 29.66 in 10.0 mi ESE 9.2 mph - N/A   Mostly Cloudy
6:55 AM 32.0 °F 25.6 °F 23.0 °F 69% 29.67 in 10.0 mi South 6.9 mph - N/A   Overcast
7:15 AM 32.0 °F 25.6 °F 19.4 °F 60% 29.67 in 10.0 mi SSE 6.9 mph - N/A   Overcast
7:35 AM 33.8 °F 24.3 °F 10.4 °F 38% 29.67 in 10.0 mi SSW 13.8 mph 18.4 mph N/A   Mostly Cloudy
7:55 AM 33.8 °F 25.3 °F 10.4 °F 38% 29.69 in 10.0 mi SSW 11.5 mph 18.4 mph N/A   Overcast
8:15 AM 33.8 °F 25.3 °F 12.2 °F 41% 29.70 in 10.0 mi SSW 11.5 mph 16.1 mph N/A   Overcast
8:35 AM 33.8 °F 24.8 °F 12.2 °F 41% 29.69 in 10.0 mi SSW 12.7 mph 18.4 mph N/A   Overcast
8:55 AM 33.8 °F 23.5 °F 12.2 °F 41% 29.70 in 10.0 mi SSW 16.1 mph 21.9 mph N/A   Overcast
9:15 AM 33.8 °F 24.8 °F 12.2 °F 41% 29.70 in 10.0 mi SSW 12.7 mph 18.4 mph N/A   Overcast
9:35 AM 33.8 °F 23.9 °F 12.2 °F 41% 29.70 in 10.0 mi SW 15.0 mph 24.2 mph N/A   Mostly Cloudy
9:55 AM 35.6 °F 27.1 °F 14.0 °F 41% 29.71 in 10.0 mi WSW 12.7 mph - N/A   Scattered Clouds
10:15 AM 35.6 °F 26.6 °F 17.6 °F 48% 29.71 in 10.0 mi NW 13.8 mph 20.7 mph N/A   Scattered Clouds
10:35 AM 33.8 °F 23.5 °F 19.4 °F 56% 29.73 in 10.0 mi WNW 16.1 mph 23.0 mph N/A   Mostly Cloudy
10:55 AM 32.0 °F 20.5 °F 21.2 °F 64% 29.75 in 7.0 mi WNW 18.4 mph 25.3 mph N/A Snow Light Snow
11:15 AM 30.2 °F 17.1 °F 17.6 °F 60% 29.77 in 7.0 mi West 21.9 mph 28.8 mph N/A   Overcast
11:35 AM 32.0 °F 19.5 °F 17.6 °F 55% 29.79 in 10.0 mi WNW 21.9 mph 29.9 mph N/A   Overcast
11:55 AM 32.0 °F 19.5 °F 17.6 °F 55% 29.80 in 10.0 mi WNW 21.9 mph 27.6 mph N/A   Mostly Cloudy
12:15 PM 32.0 °F 20.1 °F 14.0 °F 48% 29.82 in 10.0 mi West 19.6 mph 27.6 mph N/A   Mostly Cloudy
12:35 PM 32.0 °F 19.5 °F 14.0 °F 48% 29.83 in 10.0 mi West 21.9 mph 29.9 mph N/A   Overcast
12:55 PM 32.0 °F 19.5 °F 12.2 °F 44% 29.85 in 10.0 mi WNW 21.9 mph 31.1 mph N/A   Overcast
1:15 PM 32.0 °F 18.9 °F 12.2 °F 44% 29.85 in 10.0 mi WNW 24.2 mph 28.8 mph N/A   Overcast
1:35 PM 32.0 °F 20.1 °F 14.0 °F 48% 29.87 in 10.0 mi West 19.6 mph 25.3 mph N/A   Overcast
1:55 PM 32.0 °F 20.1 °F 12.2 °F 44% 29.88 in 10.0 mi WNW 19.6 mph 25.3 mph N/A   Overcast
2:15 PM 32.0 °F 18.6 °F 10.4 °F 41% 29.90 in 10.0 mi WNW 25.3 mph 31.1 mph N/A   Overcast
2:35 PM 33.8 °F 22.2 °F 10.4 °F 38% 29.91 in 10.0 mi WNW 20.7 mph 28.8 mph N/A   Overcast
2:55 PM 33.8 °F 21.3 °F 6.8 °F 32% 29.92 in 10.0 mi WNW 24.2 mph 32.2 mph N/A   Overcast
3:15 PM 32.0 °F 19.8 °F 8.6 °F 38% 29.93 in 10.0 mi WNW 20.7 mph 28.8 mph N/A   Overcast
3:35 PM 33.8 °F 22.2 °F 10.4 °F 38% 29.93 in 10.0 mi WNW 20.7 mph 31.1 mph N/A   Overcast
3:55 PM 32.0 °F 18.9 °F 10.4 °F 41% 29.94 in 10.0 mi WNW 24.2 mph 33.4 mph N/A   Overcast
4:15 PM 32.0 °F 18.1 °F 14.0 °F 48% 29.96 in 10.0 mi West 27.6 mph 34.5 mph N/A   Overcast
4:35 PM 32.0 °F 19.2 °F 12.2 °F 44% 29.98 in 10.0 mi WNW 23.0 mph 31.1 mph N/A   Overcast
4:55 PM 30.2 °F 17.1 °F 12.2 °F 47% 29.99 in 10.0 mi West 21.9 mph 29.9 mph N/A   Mostly Cloudy
5:15 PM 30.2 °F 17.1 °F 10.4 °F 44% 30.00 in 10.0 mi WNW 21.9 mph 27.6 mph N/A   Overcast
5:35 PM 32.0 °F 19.8 °F 10.4 °F 41% 30.01 in 10.0 mi NW 20.7 mph 27.6 mph N/A   Overcast
5:55 PM 32.0 °F 19.8 °F 10.4 °F 41% 30.01 in 10.0 mi WNW 20.7 mph 29.9 mph N/A   Mostly Cloudy
6:15 PM 30.2 °F 18.5 °F 10.4 °F 44% 30.02 in 10.0 mi WNW 17.3 mph 23.0 mph N/A   Mostly Cloudy
6:35 PM 30.2 °F 20.2 °F 12.2 °F 47% 30.03 in 10.0 mi WNW 12.7 mph 21.9 mph N/A   Mostly Cloudy
6:55 PM 30.2 °F 19.3 °F 8.6 °F 40% 30.05 in 10.0 mi West 15.0 mph 23.0 mph N/A   Mostly Cloudy
7:15 PM 30.2 °F 18.5 °F 8.6 °F 40% 30.06 in 10.0 mi West 17.3 mph 23.0 mph N/A   Mostly Cloudy
7:35 PM 28.4 °F 16.2 °F 10.4 °F 47% 30.08 in 10.0 mi West 17.3 mph 21.9 mph N/A   Overcast
7:55 PM 28.4 °F 18.5 °F 12.2 °F 51% 30.09 in 5.0 mi West 11.5 mph 21.9 mph N/A Snow Light Snow
8:15 PM 28.4 °F 19.1 °F 8.6 °F 43% 30.09 in 10.0 mi West 10.4 mph - N/A   Overcast
8:35 PM 28.4 °F 24.6 °F 10.4 °F 47% 30.11 in 10.0 mi NW 3.5 mph - N/A   Overcast
8:55 PM 26.6 °F 17.5 °F 6.8 °F 43% 30.12 in 10.0 mi West 9.2 mph - N/A   Mostly Cloudy
9:15 PM 26.6 °F 16.8 °F 5.0 °F 40% 30.13 in 10.0 mi WSW 10.4 mph - N/A   Scattered Clouds
9:35 PM 26.6 °F 17.5 °F 5.0 °F 40% 30.14 in 10.0 mi WSW 9.2 mph - N/A   Scattered Clouds
9:55 PM 23.0 °F 12.4 °F 6.8 °F 50% 30.14 in 10.0 mi WSW 10.4 mph - N/A   Mostly Cloudy
10:15 PM 23.0 °F 12.4 °F 8.6 °F 54% 30.16 in 10.0 mi SW 10.4 mph - N/A   Overcast
10:35 PM 23.0 °F 12.4 °F 8.6 °F 54% 30.16 in 10.0 mi SW 10.4 mph - N/A   Scattered Clouds
10:55 PM 23.0 °F 13.1 °F 12.2 °F 63% 30.17 in 10.0 mi SW 9.2 mph - N/A   Clear
11:15 PM 21.2 °F 12.6 °F 12.2 °F 68% 30.18 in 10.0 mi SW 6.9 mph - N/A   Clear
11:35 PM 21.2 °F 11.7 °F 12.2 °F 68% 30.19 in 10.0 mi SW 8.1 mph - N/A   Clear
11:55 PM 21.2 °F 11.7 °F 12.2 °F 68% 30.19 in 10.0 mi SW 8.1 mph - N/A   Clear